Weather History for Greenville/Spartanburg, SC

Change the Weather History Date:

Sunday, December 9, 2012

  Actual Average Record
Temperature  
Mean Temperature 62 °F 45 °F  
Max Temperature 70 °F 55 °F 76 °F (1943)
Min Temperature 54 °F 35 °F 12 °F (1917)
Degree Days  
Heating Degree Days 3 20  
Month to date heating degree days 65 170  
Since 1 July heating degree days 639 723  
Cooling Degree Days 0 0  
Month to date cooling degree days 0 0  
Year to date cooling degree days 1822 1715  
Growing Degree Days 12 (Base 50)    
Moisture  
Dew Point 56 °F    
Average Humidity 83    
Maximum Humidity 100    
Minimum Humidity 66    
Precipitation  
Precipitation T in 0.14 in 3.39 in (1919)
Month to date precipitation 0.05 1.27  
Year to date precipitation 33.10 44.35  
Snow  
Snow 0.00 in 0.00 in 0.70 in (1989)
Month to date snowfall 0.0 0.0  
Since 1 July snowfall T 0.1  
Snow Depth 0.00 in    
Sea Level Pressure  
Sea Level Pressure 30.04 in    
Wind  
Wind Speed 5 mph (SSW)    
Max Wind Speed 14 mph    
Max Gust Speed 18 mph    
Visibility 5 miles    
Events Fog    
T = Trace of Precipitation, MM = Missing Value Source: NWS Daily Summary

Daily Weather History Graph

Daily Weather History Graph

Search for Another Location

Airport:

Trip Planner

Search our weather history database for the weather conditions in past years. The results will help you decide how hot, cold, wet, or windy it might be!

Date:

Astronomy

Dec. 09, 2012 Rise Set
Actual Time 7:25 AM EST 5:17 PM EST
Civil Twilight 6:57 AM EST 5:45 PM EST
Nautical Twilight 6:25 AM EST 6:17 PM EST
Astronomical Twilight 5:55 AM EST 6:47 PM EST
Moon 3:03 AM EST (12/9) 2:17 PM EST (12/9)
Length of Visible Light 10h 48m
Length of Day
9h 52m
Waning Crescent, 19% of the Moon is Illuminated
Dec 9
Waning Crescent
Dec 13
New
Dec 20
First Quarter
Dec 28
Full
Jan 4
Last Quarter

Hourly Weather History & Observations

Time (EST) Temp. Dew Point Humidity Pressure Visibility Wind Dir Wind Speed Gust Speed Precip Events Conditions
12:24 AM 55.4 °F 55.4 °F 100% 30.05 in 1.8 mi Calm Calm - N/A   Overcast
12:33 AM 55.4 °F 55.4 °F 100% 30.05 in 3.0 mi Calm Calm - N/A   Overcast
12:36 AM 55.4 °F 55.4 °F 100% 30.05 in 1.8 mi Calm Calm - N/A   Overcast
12:41 AM 55.4 °F 55.4 °F 100% 30.06 in 0.8 mi Calm Calm - N/A   Overcast
12:53 AM 54.0 °F 53.1 °F 97% 30.04 in 0.5 mi West 3.5 mph - N/A Fog Fog
1:12 AM 55.4 °F 55.4 °F 100% 30.05 in 1.5 mi Calm Calm - N/A   Mostly Cloudy
1:18 AM 55.4 °F 53.6 °F 94% 30.06 in 3.0 mi Calm Calm - N/A   Mostly Cloudy
1:20 AM 55.4 °F 53.6 °F 94% 30.06 in 1.8 mi Calm Calm - N/A   Mostly Cloudy
1:23 AM 55.4 °F 53.6 °F 94% 30.06 in 0.8 mi Calm Calm - N/A   Mostly Cloudy
1:39 AM 55.4 °F 53.6 °F 94% 30.06 in 1.8 mi Calm Calm - N/A   Mostly Cloudy
1:43 AM 55.4 °F 55.4 °F 100% 30.06 in 3.0 mi WSW 3.5 mph - N/A   Mostly Cloudy
1:53 AM 55.9 °F 55.0 °F 97% 30.04 in 5.0 mi Calm Calm - N/A   Overcast
2:12 AM 55.4 °F 55.4 °F 100% 30.06 in 2.0 mi Calm Calm - N/A   Overcast
2:25 AM 55.4 °F 55.4 °F 100% 30.06 in 3.0 mi Calm Calm - N/A   Overcast
2:33 AM 55.4 °F 55.4 °F 100% 30.06 in 2.5 mi Calm Calm - N/A   Overcast
2:41 AM 55.4 °F 55.4 °F 100% 30.06 in 4.0 mi Calm Calm - N/A   Overcast
2:53 AM 55.9 °F 55.9 °F 100% 30.04 in 3.0 mi Calm Calm - N/A   Overcast
3:06 AM 55.4 °F 55.4 °F 100% 30.06 in 1.8 mi Calm Calm - N/A   Overcast
3:13 AM 55.4 °F 55.4 °F 100% 30.05 in 0.8 mi Calm Calm - N/A   Mostly Cloudy
3:19 AM 55.4 °F 55.4 °F 100% 30.05 in 1.0 mi Calm Calm - N/A   Mostly Cloudy
3:26 AM 55.4 °F 55.4 °F 100% 30.05 in 2.0 mi Calm Calm - N/A   Mostly Cloudy
3:37 AM 55.4 °F 55.4 °F 100% 30.05 in 4.0 mi SSW 3.5 mph - N/A   Mostly Cloudy
3:53 AM 55.9 °F 55.0 °F 97% 30.04 in 5.0 mi South 4.6 mph - N/A   Overcast
4:53 AM 55.9 °F 55.0 °F 97% 30.04 in 3.0 mi Calm Calm - N/A   Overcast
5:30 AM 55.4 °F 55.4 °F 100% 30.05 in 5.0 mi South 6.9 mph - 0.00 in   Mostly Cloudy
5:37 AM 55.4 °F 55.4 °F 100% 30.06 in 5.0 mi South 5.8 mph - 0.00 in   Mostly Cloudy
5:53 AM 55.9 °F 55.0 °F 97% 30.05 in 6.0 mi South 5.8 mph - 0.00 in   Scattered Clouds
6:23 AM 55.4 °F 55.4 °F 100% 30.07 in 5.0 mi Calm Calm - N/A   Overcast
6:53 AM 55.9 °F 55.0 °F 97% 30.07 in 5.0 mi South 3.5 mph - N/A   Overcast
7:53 AM 55.0 °F 55.0 °F 100% 30.07 in 5.0 mi South 6.9 mph - N/A   Overcast
8:53 AM 57.0 °F 55.9 °F 96% 30.08 in 5.0 mi South 6.9 mph - N/A   Overcast
9:13 AM 57.2 °F 55.4 °F 94% 30.10 in 6.0 mi South 5.8 mph - N/A   Mostly Cloudy
9:20 AM 57.2 °F 55.4 °F 94% 30.09 in 7.0 mi South 4.6 mph - N/A   Scattered Clouds
9:53 AM 60.1 °F 57.0 °F 90% 30.09 in 8.0 mi South 4.6 mph - N/A   Scattered Clouds
10:19 AM 64.4 °F 59.0 °F 83% 30.10 in 10.0 mi Variable 3.5 mph - N/A   Mostly Cloudy
10:53 AM 64.9 °F 57.9 °F 78% 30.08 in 10.0 mi SSW 5.8 mph - N/A   Mostly Cloudy
11:53 AM 64.9 °F 57.9 °F 78% 30.06 in 10.0 mi Variable 3.5 mph - N/A   Overcast
12:53 PM 70.0 °F 59.0 °F 68% 30.03 in 10.0 mi SSW 6.9 mph - N/A   Partly Cloudy
1:21 PM 68.0 °F 57.2 °F 68% 30.05 in 10.0 mi SW 13.8 mph - N/A   Mostly Cloudy
1:53 PM 69.1 °F 57.9 °F 68% 30.02 in 10.0 mi West 8.1 mph - N/A   Mostly Cloudy
2:49 PM 69.8 °F 57.2 °F 64% 30.03 in 10.0 mi SW 8.1 mph - N/A   Mostly Cloudy
2:53 PM 69.1 °F 57.9 °F 68% 30.01 in 10.0 mi SSW 10.4 mph - N/A   Mostly Cloudy
3:53 PM 66.9 °F 57.0 °F 70% 30.01 in 10.0 mi WSW 6.9 mph - N/A   Partly Cloudy
4:53 PM 66.2 °F 57.2 °F 73% 30.03 in 10.0 mi SW 5.8 mph - N/A   Partly Cloudy
5:53 PM 63.0 °F 57.0 °F 81% 30.01 in 10.0 mi Calm Calm - N/A   Mostly Cloudy
6:53 PM 61.0 °F 57.0 °F 87% 30.02 in 10.0 mi SSW 4.6 mph - N/A   Overcast
7:53 PM 61.0 °F 57.0 °F 87% 30.01 in 10.0 mi South 5.8 mph - N/A   Overcast
8:53 PM 57.9 °F 55.9 °F 93% 30.00 in 5.0 mi South 5.8 mph - N/A   Mostly Cloudy
9:23 PM 57.2 °F 57.2 °F 100% 30.01 in 1.2 mi SW 4.6 mph - N/A   Overcast
9:34 PM 57.2 °F 57.2 °F 100% 30.01 in 2.0 mi SSW 5.8 mph - N/A   Overcast
9:42 PM 57.2 °F 57.2 °F 100% 30.00 in 4.0 mi SSW 4.6 mph - N/A   Overcast
9:51 PM 57.2 °F 57.2 °F 100% 30.00 in 4.0 mi SSW 3.5 mph - N/A   Overcast
9:53 PM 57.9 °F 57.0 °F 97% 29.98 in 4.0 mi SSW 3.5 mph - N/A   Overcast
10:53 PM 59.0 °F 57.9 °F 96% 29.98 in 6.0 mi SW 4.6 mph - N/A   Overcast
11:53 PM 57.9 °F 57.0 °F 97% 29.98 in 6.0 mi SW 4.6 mph - N/A   Overcast